Toledo, OH

12:48 PM EDT on April 20, 2018 (GMT -0400)
Toledo Express

Weather History for KTOL - January, 2014

Change the Weather History Date:

Monday, January 6, 2014

  Actual Average Record
Temperature  
Mean Temperature 3 °F 26 °F  
Max Temperature 20 °F 33 °F 62 °F (1946)
Min Temperature -15 °F 19 °F -15 °F (2014)
Degree Days  
Heating Degree Days 62 39  
Month to date heating degree days 312 234  
Since 1 July heating degree days 2811 2559  
Cooling Degree Days 0 0  
Month to date cooling degree days 0 0  
Year to date cooling degree days 0 0  
Moisture  
Dew Point -10 °F    
Average Humidity 78    
Maximum Humidity 91    
Minimum Humidity 65    
Precipitation  
Precipitation 0.18 in 0.07 in 0.35 in (1969)
Month to date precipitation 1.59 0.45  
Year to date precipitation 1.59 0.45  
Snow  
Snow 3.60 in 0.40 in - ()
Month to date snowfall 22.4 2.1  
Since 1 July snowfall 34.1 11.6  
Snow Depth 12.00 in    
Sea Level Pressure  
Sea Level Pressure 29.99 in    
Wind  
Wind Speed 24 mph (WSW)    
Max Wind Speed 36 mph    
Max Gust Speed 46 mph    
Visibility 4 miles    
Events Snow    
T = Trace of Precipitation, MM = Missing Value Source: NWS Daily Summary

Daily Weather History Graph

Daily Weather History Graph

Search for Another Location

Airport or City:

Astronomy

Jan. 06, 2014 Rise Set
Actual Time 8:02 AM EST 5:20 PM EST
Civil Twilight 7:30 AM EST 5:51 PM EST
Nautical Twilight 6:56 AM EST 6:26 PM EST
Astronomical Twilight 6:22 AM EST 6:59 PM EST
Moon 11:11 AM EST (1/6) 11:58 PM EST (1/6)
Length of Visible Light 10h 20m
Length of Day
9h 18m
Waxing Crescent, 34% of the Moon is Illuminated
Jan 6
Waxing Crescent
Jan 7
First Quarter
Jan 15
Full
Jan 24
Last Quarter
Jan 30
New

Hourly Weather History & Observations

Time (EST) Temp. Windchill Dew Point Humidity Pressure Visibility Wind Dir Wind Speed Gust Speed Precip Events Conditions
12:29 AM 19.4 °F 3.6 °F 15.8 °F 86% 29.61 in 2.5 mi NW 19.6 mph 29.9 mph 0.10 in Snow Light Snow
12:52 AM 19.0 °F 3.6 °F 15.1 °F 85% 29.65 in 3.0 mi NW 18.4 mph 25.3 mph 0.18 in Snow Light Snow
1:17 AM 17.6 °F 2.7 °F 14.0 °F 86% 29.64 in 8.0 mi NW 16.1 mph 27.6 mph 0.08 in Snow Light Snow
1:52 AM 18.0 °F 3.1 °F 14.0 °F 84% 29.68 in 9.0 mi WNW 16.1 mph 27.6 mph 0.18 in Snow Light Snow
2:52 AM 16.0 °F 0.1 °F 10.0 °F 77% 29.75 in 10.0 mi WNW 17.3 mph 24.2 mph N/A   Mostly Cloudy
3:52 AM 14.0 °F -2.0 °F 10.0 °F 84% 29.78 in 10.0 mi West 16.1 mph - N/A   Mostly Cloudy
4:52 AM 12.9 °F -3.9 °F 9.0 °F 84% 29.81 in 10.0 mi West 17.3 mph - N/A   Clear
5:52 AM 14.0 °F -0.2 °F 10.0 °F 84% 29.84 in 9.0 mi West 12.7 mph - N/A Snow Light Snow
6:52 AM 10.0 °F -12.2 °F 5.0 °F 80% 29.89 in 3.0 mi West 29.9 mph 39.1 mph 0.17 in Snow Light Snow
7:52 AM 6.1 °F -14.8 °F -0.0 °F 76% 29.94 in 8.0 mi West 21.9 mph 29.9 mph 0.17 in Snow Light Snow
8:25 AM 3.2 °F -19.5 °F -2.2 °F 78% 29.92 in 2.5 mi West 24.2 mph 33.4 mph 0.08 in Snow Light Snow
8:44 AM 1.4 °F -23.5 °F -4.0 °F 78% 29.94 in 1.2 mi WSW 28.8 mph 36.8 mph 0.09 in Snow Light Snow
8:52 AM -0.0 °F -25.9 °F -5.1 °F 79% 29.98 in 0.8 mi WSW 29.9 mph 35.7 mph 0.09 in Snow Light Snow
9:02 AM -0.4 °F -25.2 °F -5.8 °F 78% 29.94 in 1.8 mi WSW 26.5 mph 34.5 mph 0.13 in Snow Blowing Snow
9:09 AM -0.4 °F -27.1 °F -5.8 °F 78% 29.95 in 0.8 mi WSW 32.2 mph 38.0 mph 0.13 in Snow Blowing Snow
9:32 AM -2.2 °F -28.0 °F -7.6 °F 78% 29.95 in 1.2 mi WSW 27.6 mph 39.1 mph 0.26 in Snow Blowing Snow
9:52 AM -2.9 °F -30.2 °F -9.0 °F 75% 30.01 in 1.0 mi WSW 31.1 mph 40.3 mph N/A Snow Blowing Snow
10:01 AM -4.0 °F -29.6 °F -9.4 °F 78% 29.98 in 2.0 mi WSW 25.3 mph 39.1 mph 0.03 in Snow Blowing Snow
10:28 AM -5.8 °F -33.7 °F -11.2 °F 77% 29.99 in 1.2 mi WSW 29.9 mph 41.4 mph 0.32 in Snow Blowing Snow
10:31 AM -5.8 °F -32.4 °F -11.2 °F 77% 29.99 in 1.5 mi WSW 26.5 mph 41.4 mph 0.32 in Snow Blowing Snow
10:37 AM -5.8 °F -29.9 °F -11.2 °F 77% 29.99 in 3.0 mi WSW 20.7 mph 33.4 mph 0.45 in Snow Blowing Snow
10:52 AM -6.0 °F -33.9 °F -11.9 °F 75% 30.04 in 3.0 mi WSW 29.9 mph 36.8 mph N/A   Haze
10:58 AM -5.8 °F -33.3 °F -13.0 °F 71% 30.00 in 1.8 mi WSW 28.8 mph 36.8 mph 0.00 in   Partly Cloudy
11:07 AM -5.8 °F -33.7 °F -13.0 °F 71% 30.00 in 2.5 mi WSW 29.9 mph 36.8 mph N/A   Scattered Clouds
11:14 AM -7.6 °F -35.3 °F -13.0 °F 77% 30.00 in 1.8 mi WSW 27.6 mph 36.8 mph N/A   Mostly Cloudy
11:21 AM -7.6 °F -33.4 °F -13.0 °F 77% 30.00 in 3.0 mi WSW 23.0 mph 34.5 mph 0.18 in   Haze
11:47 AM -7.6 °F -33.9 °F -14.8 °F 71% 30.00 in 2.5 mi WSW 24.2 mph 35.7 mph N/A   Haze
11:52 AM -7.1 °F -35.4 °F -14.1 °F 72% 30.04 in 2.5 mi WSW 29.9 mph 38.0 mph N/A   Clear
11:59 AM -7.6 °F -34.8 °F -14.8 °F 71% 29.99 in 2.0 mi WSW 26.5 mph 38.0 mph N/A   Partly Cloudy
12:17 PM -5.8 °F -31.0 °F -14.8 °F 65% 29.99 in 3.0 mi WSW 23.0 mph 38.0 mph N/A   Partly Cloudy
12:32 PM -7.6 °F -36.6 °F -14.8 °F 71% 29.99 in 1.8 mi WSW 31.1 mph 38.0 mph N/A   Partly Cloudy
12:48 PM -7.6 °F -35.7 °F -14.8 °F 71% 29.99 in 2.5 mi WSW 28.8 mph 40.3 mph N/A   Partly Cloudy
12:52 PM -7.1 °F -35.4 °F -15.0 °F 68% 30.04 in 2.0 mi WSW 29.9 mph 36.8 mph N/A   Partly Cloudy
1:01 PM -7.6 °F -36.1 °F -14.8 °F 71% 29.99 in 1.5 mi WSW 29.9 mph 38.0 mph N/A   Partly Cloudy
1:10 PM -7.6 °F -33.9 °F -14.8 °F 71% 29.99 in 1.2 mi WSW 24.2 mph 40.3 mph N/A   Partly Cloudy
1:15 PM -7.6 °F -35.7 °F -14.8 °F 71% 29.99 in 2.0 mi WSW 28.8 mph 39.1 mph N/A   Partly Cloudy
1:52 PM -7.1 °F -35.4 °F -15.0 °F 68% 30.04 in 1.8 mi WSW 29.9 mph 41.4 mph N/A   Partly Cloudy
2:06 PM -7.6 °F -37.7 °F -16.6 °F 65% 30.00 in 1.2 mi WSW 34.5 mph 43.7 mph N/A   Scattered Clouds
2:13 PM -7.6 °F -35.3 °F -16.6 °F 65% 30.00 in 2.0 mi WSW 27.6 mph 41.4 mph N/A   Partly Cloudy
2:42 PM -7.6 °F -36.6 °F -16.6 °F 65% 30.01 in 1.5 mi WSW 31.1 mph 40.3 mph N/A Snow Blowing Snow
2:52 PM -8.0 °F -36.2 °F -16.1 °F 68% 30.07 in 2.0 mi West 28.8 mph 40.3 mph N/A Snow Blowing Snow
3:17 PM -9.4 °F -40.5 °F -16.6 °F 71% 30.04 in 1.2 mi WSW 35.7 mph 46.0 mph N/A Snow Blowing Snow
3:22 PM -9.4 °F -39.8 °F -16.6 °F 71% 30.04 in 0.8 mi WSW 33.4 mph 46.0 mph N/A Snow Blowing Snow
3:27 PM -9.4 °F -37.3 °F -16.6 °F 71% 30.04 in 1.2 mi WSW 26.5 mph 42.6 mph N/A Snow Blowing Snow
3:35 PM -9.4 °F -39.0 °F -16.6 °F 71% 30.05 in 1.8 mi WSW 31.1 mph 38.0 mph N/A Snow Blowing Snow
3:52 PM -9.9 °F -38.4 °F -17.0 °F 71% 30.11 in 1.5 mi WSW 27.6 mph 43.7 mph N/A Snow Blowing Snow
4:04 PM -9.4 °F -39.0 °F -16.6 °F 71% 30.06 in 2.0 mi WSW 31.1 mph 38.0 mph N/A Snow Blowing Snow
4:32 PM -11.2 °F -40.1 °F -18.4 °F 70% 30.08 in 4.0 mi WSW 27.6 mph 39.1 mph N/A Snow Blowing Snow
4:52 PM -11.9 °F -40.2 °F -18.9 °F 71% 30.14 in 6.0 mi WSW 25.3 mph 34.5 mph N/A Snow Blowing Snow
5:52 PM -13.0 °F -41.1 °F -20.9 °F 68% 30.18 in 8.0 mi WSW 24.2 mph 34.5 mph N/A Snow Blowing Snow
6:52 PM -14.1 °F -42.5 °F -22.0 °F 68% 30.21 in 8.0 mi WSW 24.2 mph 32.2 mph N/A   Clear
7:52 PM -15.0 °F -44.3 °F -22.0 °F 71% 30.23 in 5.0 mi WSW 25.3 mph 32.2 mph N/A   Clear
8:52 PM -15.0 °F -44.8 °F -22.0 °F 71% 30.24 in 4.0 mi WSW 26.5 mph 35.7 mph N/A Snow Blowing Snow
9:52 PM -14.1 °F -42.0 °F -22.0 °F 68% 30.24 in 7.0 mi WSW 23.0 mph 31.1 mph N/A Snow Blowing Snow
10:52 PM -14.1 °F -40.8 °F -22.0 °F 68% 30.24 in 10.0 mi WSW 20.7 mph 25.3 mph N/A   Clear
11:52 PM -14.1 °F -38.2 °F -22.0 °F 68% 30.24 in 10.0 mi WSW 16.1 mph 24.2 mph N/A   Clear